timestamp,waterbody_station,lease,latitude,longitude,deployment_start_date,deployment_end_date,sensor,depth,mooring,Temperature_degrees Celsius,Salinity_practical salinity units,Dissolved Oxygen_percent saturation
2022-07-14T00:07:00,St. Mary's Bay-Centreville,,44.536239,-66.00172,2022-06-07,2022-08-22,aquaMeasure-670375,3.5,float,17.24,,
2022-07-14T00:17:00,St. Mary's Bay-Centreville,,44.536239,-66.00172,2022-06-07,2022-08-22,aquaMeasure-670375,3.5,float,17.33,,
2022-07-14T00:27:00,St. Mary's Bay-Centreville,,44.536239,-66.00172,2022-06-07,2022-08-22,aquaMeasure-670375,3.5,float,17.26,,
2022-07-14T00:37:00,St. Mary's Bay-Centreville,,44.536239,-66.00172,2022-06-07,2022-08-22,aquaMeasure-670375,3.5,float,17.31,,
2022-07-14T00:47:00,St. Mary's Bay-Centreville,,44.536239,-66.00172,2022-06-07,2022-08-22,aquaMeasure-670375,3.5,float,17.24,,
2022-07-14T00:57:00,St. Mary's Bay-Centreville,,44.536239,-66.00172,2022-06-07,2022-08-22,aquaMeasure-670375,3.5,float,17.18,,
2022-07-14T01:07:00,St. Mary's Bay-Centreville,,44.536239,-66.00172,2022-06-07,2022-08-22,aquaMeasure-670375,3.5,float,17.11,,
2022-07-14T01:17:00,St. Mary's Bay-Centreville,,44.536239,-66.00172,2022-06-07,2022-08-22,aquaMeasure-670375,3.5,float,17.05,,
2022-07-14T01:27:00,St. Mary's Bay-Centreville,,44.536239,-66.00172,2022-06-07,2022-08-22,aquaMeasure-670375,3.5,float,16.91,,
2022-07-14T01:37:00,St. Mary's Bay-Centreville,,44.536239,-66.00172,2022-06-07,2022-08-22,aquaMeasure-670375,3.5,float,16.81,,
2022-07-14T01:47:00,St. Mary's Bay-Centreville,,44.536239,-66.00172,2022-06-07,2022-08-22,aquaMeasure-670375,3.5,float,16.7,,
2022-07-14T01:57:00,St. Mary's Bay-Centreville,,44.536239,-66.00172,2022-06-07,2022-08-22,aquaMeasure-670375,3.5,float,16.74,,
2022-07-14T02:07:00,St. Mary's Bay-Centreville,,44.536239,-66.00172,2022-06-07,2022-08-22,aquaMeasure-670375,3.5,float,16.65,,
2022-07-14T02:17:00,St. Mary's Bay-Centreville,,44.536239,-66.00172,2022-06-07,2022-08-22,aquaMeasure-670375,3.5,float,16.61,,
2022-07-14T02:27:00,St. Mary's Bay-Centreville,,44.536239,-66.00172,2022-06-07,2022-08-22,aquaMeasure-670375,3.5,float,16.72,,
2022-07-14T02:37:00,St. Mary's Bay-Centreville,,44.536239,-66.00172,2022-06-07,2022-08-22,aquaMeasure-670375,3.5,float,16.7,,
2022-07-14T02:47:00,St. Mary's Bay-Centreville,,44.536239,-66.00172,2022-06-07,2022-08-22,aquaMeasure-670375,3.5,float,16.74,,
2022-07-14T02:57:00,St. Mary's Bay-Centreville,,44.536239,-66.00172,2022-06-07,2022-08-22,aquaMeasure-670375,3.5,float,16.85,,
2022-07-14T03:07:00,St. Mary's Bay-Centreville,,44.536239,-66.00172,2022-06-07,2022-08-22,aquaMeasure-670375,3.5,float,16.98,,
2022-07-14T03:17:00,St. Mary's Bay-Centreville,,44.536239,-66.00172,2022-06-07,2022-08-22,aquaMeasure-670375,3.5,float,17.0,,
2022-07-14T03:27:00,St. Mary's Bay-Centreville,,44.536239,-66.00172,2022-06-07,2022-08-22,aquaMeasure-670375,3.5,float,17.02,,
2022-07-14T03:37:00,St. Mary's Bay-Centreville,,44.536239,-66.00172,2022-06-07,2022-08-22,aquaMeasure-670375,3.5,float,17.07,,
2022-07-14T03:47:00,St. Mary's Bay-Centreville,,44.536239,-66.00172,2022-06-07,2022-08-22,aquaMeasure-670375,3.5,float,17.16,,
2022-07-14T03:57:00,St. Mary's Bay-Centreville,,44.536239,-66.00172,2022-06-07,2022-08-22,aquaMeasure-670375,3.5,float,17.13,,
2022-07-14T04:07:00,St. Mary's Bay-Centreville,,44.536239,-66.00172,2022-06-07,2022-08-22,aquaMeasure-670375,3.5,float,17.11,,
2022-07-14T04:17:00,St. Mary's Bay-Centreville,,44.536239,-66.00172,2022-06-07,2022-08-22,aquaMeasure-670375,3.5,float,17.11,,
2022-07-14T04:27:00,St. Mary's Bay-Centreville,,44.536239,-66.00172,2022-06-07,2022-08-22,aquaMeasure-670375,3.5,float,17.09,,
2022-07-14T04:37:00,St. Mary's Bay-Centreville,,44.536239,-66.00172,2022-06-07,2022-08-22,aquaMeasure-670375,3.5,float,17.05,,
2022-07-14T04:47:00,St. Mary's Bay-Centreville,,44.536239,-66.00172,2022-06-07,2022-08-22,aquaMeasure-670375,3.5,float,17.07,,
2022-07-14T04:57:00,St. Mary's Bay-Centreville,,44.536239,-66.00172,2022-06-07,2022-08-22,aquaMeasure-670375,3.5,float,17.07,,
2022-07-14T05:07:00,St. Mary's Bay-Centreville,,44.536239,-66.00172,2022-06-07,2022-08-22,aquaMeasure-670375,3.5,float,17.09,,
2022-07-14T05:17:00,St. Mary's Bay-Centreville,,44.536239,-66.00172,2022-06-07,2022-08-22,aquaMeasure-670375,3.5,float,17.2,,
2022-07-14T05:27:00,St. Mary's Bay-Centreville,,44.536239,-66.00172,2022-06-07,2022-08-22,aquaMeasure-670375,3.5,float,17.55,,
2022-07-14T05:37:00,St. Mary's Bay-Centreville,,44.536239,-66.00172,2022-06-07,2022-08-22,aquaMeasure-670375,3.5,float,17.81,,
2022-07-14T05:47:00,St. Mary's Bay-Centreville,,44.536239,-66.00172,2022-06-07,2022-08-22,aquaMeasure-670375,3.5,float,18.19,,
2022-07-14T05:57:00,St. Mary's Bay-Centreville,,44.536239,-66.00172,2022-06-07,2022-08-22,aquaMeasure-670375,3.5,float,18.5,,
2022-07-14T06:07:00,St. Mary's Bay-Centreville,,44.536239,-66.00172,2022-06-07,2022-08-22,aquaMeasure-670375,3.5,float,18.61,,
2022-07-14T06:17:00,St. Mary's Bay-Centreville,,44.536239,-66.00172,2022-06-07,2022-08-22,aquaMeasure-670375,3.5,float,18.61,,
2022-07-14T06:27:00,St. Mary's Bay-Centreville,,44.536239,-66.00172,2022-06-07,2022-08-22,aquaMeasure-670375,3.5,float,18.64,,
2022-07-14T06:37:00,St. Mary's Bay-Centreville,,44.536239,-66.00172,2022-06-07,2022-08-22,aquaMeasure-670375,3.5,float,18.7,,
2022-07-14T06:47:00,St. Mary's Bay-Centreville,,44.536239,-66.00172,2022-06-07,2022-08-22,aquaMeasure-670375,3.5,float,18.77,,
2022-07-14T06:57:00,St. Mary's Bay-Centreville,,44.536239,-66.00172,2022-06-07,2022-08-22,aquaMeasure-670375,3.5,float,18.84,,
2022-07-14T07:07:00,St. Mary's Bay-Centreville,,44.536239,-66.00172,2022-06-07,2022-08-22,aquaMeasure-670375,3.5,float,18.79,,
2022-07-14T07:17:00,St. Mary's Bay-Centreville,,44.536239,-66.00172,2022-06-07,2022-08-22,aquaMeasure-670375,3.5,float,18.82,,
2022-07-14T07:27:00,St. Mary's Bay-Centreville,,44.536239,-66.00172,2022-06-07,2022-08-22,aquaMeasure-670375,3.5,float,18.91,,
2022-07-14T07:37:00,St. Mary's Bay-Centreville,,44.536239,-66.00172,2022-06-07,2022-08-22,aquaMeasure-670375,3.5,float,18.97,,
2022-07-14T07:47:00,St. Mary's Bay-Centreville,,44.536239,-66.00172,2022-06-07,2022-08-22,aquaMeasure-670375,3.5,float,18.97,,
2022-07-14T07:57:00,St. Mary's Bay-Centreville,,44.536239,-66.00172,2022-06-07,2022-08-22,aquaMeasure-670375,3.5,float,18.97,,
2022-07-14T08:07:00,St. Mary's Bay-Centreville,,44.536239,-66.00172,2022-06-07,2022-08-22,aquaMeasure-670375,3.5,float,18.97,,
2022-07-14T08:17:00,St. Mary's Bay-Centreville,,44.536239,-66.00172,2022-06-07,2022-08-22,aquaMeasure-670375,3.5,float,18.82,,
2022-07-14T08:27:00,St. Mary's Bay-Centreville,,44.536239,-66.00172,2022-06-07,2022-08-22,aquaMeasure-670375,3.5,float,18.75,,
2022-07-14T08:37:00,St. Mary's Bay-Centreville,,44.536239,-66.00172,2022-06-07,2022-08-22,aquaMeasure-670375,3.5,float,18.75,,
2022-07-14T08:47:00,St. Mary's Bay-Centreville,,44.536239,-66.00172,2022-06-07,2022-08-22,aquaMeasure-670375,3.5,float,18.66,,
2022-07-14T08:57:00,St. Mary's Bay-Centreville,,44.536239,-66.00172,2022-06-07,2022-08-22,aquaMeasure-670375,3.5,float,18.59,,
2022-07-14T09:07:00,St. Mary's Bay-Centreville,,44.536239,-66.00172,2022-06-07,2022-08-22,aquaMeasure-670375,3.5,float,18.53,,
2022-07-14T09:17:00,St. Mary's Bay-Centreville,,44.536239,-66.00172,2022-06-07,2022-08-22,aquaMeasure-670375,3.5,float,18.5,,
2022-07-14T09:27:00,St. Mary's Bay-Centreville,,44.536239,-66.00172,2022-06-07,2022-08-22,aquaMeasure-670375,3.5,float,18.41,,
2022-07-14T09:37:00,St. Mary's Bay-Centreville,,44.536239,-66.00172,2022-06-07,2022-08-22,aquaMeasure-670375,3.5,float,18.48,,
2022-07-14T09:47:00,St. Mary's Bay-Centreville,,44.536239,-66.00172,2022-06-07,2022-08-22,aquaMeasure-670375,3.5,float,18.3,,
2022-07-14T09:57:00,St. Mary's Bay-Centreville,,44.536239,-66.00172,2022-06-07,2022-08-22,aquaMeasure-670375,3.5,float,17.59,,
2022-07-14T10:07:00,St. Mary's Bay-Centreville,,44.536239,-66.00172,2022-06-07,2022-08-22,aquaMeasure-670375,3.5,float,17.64,,
2022-07-14T10:17:00,St. Mary's Bay-Centreville,,44.536239,-66.00172,2022-06-07,2022-08-22,aquaMeasure-670375,3.5,float,17.62,,
2022-07-14T10:27:00,St. Mary's Bay-Centreville,,44.536239,-66.00172,2022-06-07,2022-08-22,aquaMeasure-670375,3.5,float,17.64,,
2022-07-14T10:37:00,St. Mary's Bay-Centreville,,44.536239,-66.00172,2022-06-07,2022-08-22,aquaMeasure-670375,3.5,float,17.68,,
2022-07-14T10:47:00,St. Mary's Bay-Centreville,,44.536239,-66.00172,2022-06-07,2022-08-22,aquaMeasure-670375,3.5,float,17.68,,
2022-07-14T10:57:00,St. Mary's Bay-Centreville,,44.536239,-66.00172,2022-06-07,2022-08-22,aquaMeasure-670375,3.5,float,17.64,,
2022-07-14T11:07:00,St. Mary's Bay-Centreville,,44.536239,-66.00172,2022-06-07,2022-08-22,aquaMeasure-670375,3.5,float,17.62,,
2022-07-14T11:17:00,St. Mary's Bay-Centreville,,44.536239,-66.00172,2022-06-07,2022-08-22,aquaMeasure-670375,3.5,float,17.57,,
2022-07-14T11:27:00,St. Mary's Bay-Centreville,,44.536239,-66.00172,2022-06-07,2022-08-22,aquaMeasure-670375,3.5,float,17.62,,
2022-07-14T11:37:00,St. Mary's Bay-Centreville,,44.536239,-66.00172,2022-06-07,2022-08-22,aquaMeasure-670375,3.5,float,17.53,,
2022-07-14T11:47:00,St. Mary's Bay-Centreville,,44.536239,-66.00172,2022-06-07,2022-08-22,aquaMeasure-670375,3.5,float,17.48,,
2022-07-14T11:57:00,St. Mary's Bay-Centreville,,44.536239,-66.00172,2022-06-07,2022-08-22,aquaMeasure-670375,3.5,float,17.46,,
2022-07-14T12:07:00,St. Mary's Bay-Centreville,,44.536239,-66.00172,2022-06-07,2022-08-22,aquaMeasure-670375,3.5,float,17.4,,
2022-07-14T12:17:00,St. Mary's Bay-Centreville,,44.536239,-66.00172,2022-06-07,2022-08-22,aquaMeasure-670375,3.5,float,17.62,,
2022-07-14T12:27:00,St. Mary's Bay-Centreville,,44.536239,-66.00172,2022-06-07,2022-08-22,aquaMeasure-670375,3.5,float,17.46,,
2022-07-14T12:37:00,St. Mary's Bay-Centreville,,44.536239,-66.00172,2022-06-07,2022-08-22,aquaMeasure-670375,3.5,float,17.37,,
2022-07-14T12:47:00,St. Mary's Bay-Centreville,,44.536239,-66.00172,2022-06-07,2022-08-22,aquaMeasure-670375,3.5,float,17.37,,
2022-07-14T12:57:00,St. Mary's Bay-Centreville,,44.536239,-66.00172,2022-06-07,2022-08-22,aquaMeasure-670375,3.5,float,17.26,,
2022-07-14T13:07:00,St. Mary's Bay-Centreville,,44.536239,-66.00172,2022-06-07,2022-08-22,aquaMeasure-670375,3.5,float,17.16,,
2022-07-14T13:17:00,St. Mary's Bay-Centreville,,44.536239,-66.00172,2022-06-07,2022-08-22,aquaMeasure-670375,3.5,float,17.11,,
2022-07-14T13:27:00,St. Mary's Bay-Centreville,,44.536239,-66.00172,2022-06-07,2022-08-22,aquaMeasure-670375,3.5,float,17.13,,
2022-07-14T13:37:00,St. Mary's Bay-Centreville,,44.536239,-66.00172,2022-06-07,2022-08-22,aquaMeasure-670375,3.5,float,17.09,,
2022-07-14T13:47:00,St. Mary's Bay-Centreville,,44.536239,-66.00172,2022-06-07,2022-08-22,aquaMeasure-670375,3.5,float,16.98,,
2022-07-14T13:57:00,St. Mary's Bay-Centreville,,44.536239,-66.00172,2022-06-07,2022-08-22,aquaMeasure-670375,3.5,float,16.87,,
2022-07-14T14:07:00,St. Mary's Bay-Centreville,,44.536239,-66.00172,2022-06-07,2022-08-22,aquaMeasure-670375,3.5,float,16.85,,
2022-07-14T14:17:00,St. Mary's Bay-Centreville,,44.536239,-66.00172,2022-06-07,2022-08-22,aquaMeasure-670375,3.5,float,16.89,,
2022-07-14T14:27:00,St. Mary's Bay-Centreville,,44.536239,-66.00172,2022-06-07,2022-08-22,aquaMeasure-670375,3.5,float,16.96,,
2022-07-14T14:36:00,St. Mary's Bay-Centreville,,44.536239,-66.00172,2022-06-07,2022-08-22,aquaMeasure-670375,3.5,float,16.91,,
2022-07-14T14:46:00,St. Mary's Bay-Centreville,,44.536239,-66.00172,2022-06-07,2022-08-22,aquaMeasure-670375,3.5,float,16.94,,
2022-07-14T14:56:00,St. Mary's Bay-Centreville,,44.536239,-66.00172,2022-06-07,2022-08-22,aquaMeasure-670375,3.5,float,17.09,,
2022-07-14T15:06:00,St. Mary's Bay-Centreville,,44.536239,-66.00172,2022-06-07,2022-08-22,aquaMeasure-670375,3.5,float,17.29,,
2022-07-14T15:16:00,St. Mary's Bay-Centreville,,44.536239,-66.00172,2022-06-07,2022-08-22,aquaMeasure-670375,3.5,float,17.37,,
2022-07-14T15:26:00,St. Mary's Bay-Centreville,,44.536239,-66.00172,2022-06-07,2022-08-22,aquaMeasure-670375,3.5,float,17.33,,
2022-07-14T15:36:00,St. Mary's Bay-Centreville,,44.536239,-66.00172,2022-06-07,2022-08-22,aquaMeasure-670375,3.5,float,17.4,,
2022-07-14T15:46:00,St. Mary's Bay-Centreville,,44.536239,-66.00172,2022-06-07,2022-08-22,aquaMeasure-670375,3.5,float,17.35,,
2022-07-14T15:56:00,St. Mary's Bay-Centreville,,44.536239,-66.00172,2022-06-07,2022-08-22,aquaMeasure-670375,3.5,float,17.33,,
2022-07-14T16:06:00,St. Mary's Bay-Centreville,,44.536239,-66.00172,2022-06-07,2022-08-22,aquaMeasure-670375,3.5,float,17.29,,
2022-07-14T16:16:00,St. Mary's Bay-Centreville,,44.536239,-66.00172,2022-06-07,2022-08-22,aquaMeasure-670375,3.5,float,17.31,,
2022-07-14T16:26:00,St. Mary's Bay-Centreville,,44.536239,-66.00172,2022-06-07,2022-08-22,aquaMeasure-670375,3.5,float,17.22,,
2022-07-14T16:36:00,St. Mary's Bay-Centreville,,44.536239,-66.00172,2022-06-07,2022-08-22,aquaMeasure-670375,3.5,float,17.18,,
2022-07-14T16:46:00,St. Mary's Bay-Centreville,,44.536239,-66.00172,2022-06-07,2022-08-22,aquaMeasure-670375,3.5,float,17.18,,
2022-07-14T16:56:00,St. Mary's Bay-Centreville,,44.536239,-66.00172,2022-06-07,2022-08-22,aquaMeasure-670375,3.5,float,17.2,,
2022-07-14T17:06:00,St. Mary's Bay-Centreville,,44.536239,-66.00172,2022-06-07,2022-08-22,aquaMeasure-670375,3.5,float,17.35,,
2022-07-14T17:16:00,St. Mary's Bay-Centreville,,44.536239,-66.00172,2022-06-07,2022-08-22,aquaMeasure-670375,3.5,float,17.4,,
2022-07-14T17:26:00,St. Mary's Bay-Centreville,,44.536239,-66.00172,2022-06-07,2022-08-22,aquaMeasure-670375,3.5,float,17.64,,
2022-07-14T17:36:00,St. Mary's Bay-Centreville,,44.536239,-66.00172,2022-06-07,2022-08-22,aquaMeasure-670375,3.5,float,17.97,,
2022-07-14T17:46:00,St. Mary's Bay-Centreville,,44.536239,-66.00172,2022-06-07,2022-08-22,aquaMeasure-670375,3.5,float,18.15,,
2022-07-14T17:56:00,St. Mary's Bay-Centreville,,44.536239,-66.00172,2022-06-07,2022-08-22,aquaMeasure-670375,3.5,float,18.3,,
2022-07-14T18:06:00,St. Mary's Bay-Centreville,,44.536239,-66.00172,2022-06-07,2022-08-22,aquaMeasure-670375,3.5,float,18.28,,
2022-07-14T18:16:00,St. Mary's Bay-Centreville,,44.536239,-66.00172,2022-06-07,2022-08-22,aquaMeasure-670375,3.5,float,18.3,,
2022-07-14T18:26:00,St. Mary's Bay-Centreville,,44.536239,-66.00172,2022-06-07,2022-08-22,aquaMeasure-670375,3.5,float,18.37,,
2022-07-14T18:36:00,St. Mary's Bay-Centreville,,44.536239,-66.00172,2022-06-07,2022-08-22,aquaMeasure-670375,3.5,float,18.5,,
2022-07-14T18:46:00,St. Mary's Bay-Centreville,,44.536239,-66.00172,2022-06-07,2022-08-22,aquaMeasure-670375,3.5,float,18.61,,
2022-07-14T18:56:00,St. Mary's Bay-Centreville,,44.536239,-66.00172,2022-06-07,2022-08-22,aquaMeasure-670375,3.5,float,18.66,,
2022-07-14T19:06:00,St. Mary's Bay-Centreville,,44.536239,-66.00172,2022-06-07,2022-08-22,aquaMeasure-670375,3.5,float,18.75,,
2022-07-14T19:16:00,St. Mary's Bay-Centreville,,44.536239,-66.00172,2022-06-07,2022-08-22,aquaMeasure-670375,3.5,float,18.77,,
2022-07-14T19:26:00,St. Mary's Bay-Centreville,,44.536239,-66.00172,2022-06-07,2022-08-22,aquaMeasure-670375,3.5,float,18.79,,
2022-07-14T19:36:00,St. Mary's Bay-Centreville,,44.536239,-66.00172,2022-06-07,2022-08-22,aquaMeasure-670375,3.5,float,18.82,,
2022-07-14T19:46:00,St. Mary's Bay-Centreville,,44.536239,-66.00172,2022-06-07,2022-08-22,aquaMeasure-670375,3.5,float,18.82,,
2022-07-14T19:56:00,St. Mary's Bay-Centreville,,44.536239,-66.00172,2022-06-07,2022-08-22,aquaMeasure-670375,3.5,float,18.82,,
2022-07-14T20:06:00,St. Mary's Bay-Centreville,,44.536239,-66.00172,2022-06-07,2022-08-22,aquaMeasure-670375,3.5,float,18.79,,
2022-07-14T20:16:00,St. Mary's Bay-Centreville,,44.536239,-66.00172,2022-06-07,2022-08-22,aquaMeasure-670375,3.5,float,18.77,,
2022-07-14T20:26:00,St. Mary's Bay-Centreville,,44.536239,-66.00172,2022-06-07,2022-08-22,aquaMeasure-670375,3.5,float,18.77,,
2022-07-14T20:36:00,St. Mary's Bay-Centreville,,44.536239,-66.00172,2022-06-07,2022-08-22,aquaMeasure-670375,3.5,float,18.79,,
2022-07-14T20:46:00,St. Mary's Bay-Centreville,,44.536239,-66.00172,2022-06-07,2022-08-22,aquaMeasure-670375,3.5,float,18.7,,
2022-07-14T20:56:00,St. Mary's Bay-Centreville,,44.536239,-66.00172,2022-06-07,2022-08-22,aquaMeasure-670375,3.5,float,18.68,,
2022-07-14T21:06:00,St. Mary's Bay-Centreville,,44.536239,-66.00172,2022-06-07,2022-08-22,aquaMeasure-670375,3.5,float,18.64,,
2022-07-14T21:16:00,St. Mary's Bay-Centreville,,44.536239,-66.00172,2022-06-07,2022-08-22,aquaMeasure-670375,3.5,float,18.61,,
2022-07-14T21:26:00,St. Mary's Bay-Centreville,,44.536239,-66.00172,2022-06-07,2022-08-22,aquaMeasure-670375,3.5,float,18.57,,
2022-07-14T21:36:00,St. Mary's Bay-Centreville,,44.536239,-66.00172,2022-06-07,2022-08-22,aquaMeasure-670375,3.5,float,18.53,,
2022-07-14T21:46:00,St. Mary's Bay-Centreville,,44.536239,-66.00172,2022-06-07,2022-08-22,aquaMeasure-670375,3.5,float,18.48,,
2022-07-14T21:56:00,St. Mary's Bay-Centreville,,44.536239,-66.00172,2022-06-07,2022-08-22,aquaMeasure-670375,3.5,float,18.55,,
2022-07-14T22:06:00,St. Mary's Bay-Centreville,,44.536239,-66.00172,2022-06-07,2022-08-22,aquaMeasure-670375,3.5,float,18.57,,
2022-07-14T22:16:00,St. Mary's Bay-Centreville,,44.536239,-66.00172,2022-06-07,2022-08-22,aquaMeasure-670375,3.5,float,17.7,,
2022-07-14T22:26:00,St. Mary's Bay-Centreville,,44.536239,-66.00172,2022-06-07,2022-08-22,aquaMeasure-670375,3.5,float,17.68,,
2022-07-14T22:36:00,St. Mary's Bay-Centreville,,44.536239,-66.00172,2022-06-07,2022-08-22,aquaMeasure-670375,3.5,float,18.12,,
2022-07-14T22:46:00,St. Mary's Bay-Centreville,,44.536239,-66.00172,2022-06-07,2022-08-22,aquaMeasure-670375,3.5,float,18.06,,
2022-07-14T22:56:00,St. Mary's Bay-Centreville,,44.536239,-66.00172,2022-06-07,2022-08-22,aquaMeasure-670375,3.5,float,18.46,,
2022-07-14T23:06:00,St. Mary's Bay-Centreville,,44.536239,-66.00172,2022-06-07,2022-08-22,aquaMeasure-670375,3.5,float,18.46,,
2022-07-14T23:16:00,St. Mary's Bay-Centreville,,44.536239,-66.00172,2022-06-07,2022-08-22,aquaMeasure-670375,3.5,float,18.5,,
2022-07-14T23:26:00,St. Mary's Bay-Centreville,,44.536239,-66.00172,2022-06-07,2022-08-22,aquaMeasure-670375,3.5,float,18.39,,
2022-07-14T23:36:00,St. Mary's Bay-Centreville,,44.536239,-66.00172,2022-06-07,2022-08-22,aquaMeasure-670375,3.5,float,18.44,,
2022-07-14T23:46:00,St. Mary's Bay-Centreville,,44.536239,-66.00172,2022-06-07,2022-08-22,aquaMeasure-670375,3.5,float,18.08,,
2022-07-14T23:56:00,St. Mary's Bay-Centreville,,44.536239,-66.00172,2022-06-07,2022-08-22,aquaMeasure-670375,3.5,float,17.7,,
